Dewpoint
29 27 27 30 35 41 53 54 51 56 57 55 57 57 59 61 60 59 52 53 51 51 53 58 60 62 62 63 65 69 69 70 68 68 69 69 67 68 70 70 72 70 71 71
23 22 22 24 43 49 51 51 52 55 56 53 54 57 59 60 60 60 59 59 55 51 52 58 60 61 61 65 65 69 70 69 70 71 72 71 69 71 71 71 71 71 69 70
18 20 21 19 47 46 51 51 52 51 54 54 54 55 56 59 61 61 60 59 60 58 54 57 60 60 62 66 69 70 71 71 71 71 71 71 71 71 69 71 71 71 72 71
14 16 17 18 44 47 49 52 52 52 50 47 55 48 55 57 57 58 59 58 60 60 57 57 59 60 62 64 67 69 71 71 71 72 69 69 69 67 70 70 71 70 72 71
13 11 11 15 22 49 51 53 51 49 50 51 51 51 53 56 54 55 56 57 59 60 58 56 56 60 62 66 66 69 70 71 71 70 71 70 68 69 71 71 70 67 71 72
17 14 13 16 25 47 52 51 51 52 51 45 49 50 51 52 51 53 55 58 59 61 61 60 58 59 63 64 68 69 70 70 71 71 70 69 69 70 69 68 70 71 71 71
22 13 12 15 35 50 51 50 46 43 42 41 49 48 50 53 56 54 55 57 58 62 61 60 59 61 60 62 66 70 70 71 71 71 70 69 70 70 69 68 68 70 70 69
21 15 13 22 21 41 49 43 41 38 42 44 50 48 50 53 55 57 57 57 60 61 62 63 58 64 66 64 66 69 71 71 71 71 71 70 71 71 71 71 70 70 69 71
22 22 22 21 23 24 31 36 38 42 45 44 49 51 54 53 55 55 56 58 59 60 62 63 63 66 68 68 68 70 71 71 72 70 72 70 72 70 70 71 71 72 72 71
21 24 26 26 20 24 23 32 29 39 39 39 46 48 50 48 52 54 54 54 55 57 60 63 65 67 69 69 68 70 72 71 71 71 72 71 71 71 71 71 69 69 69 69
31 29 25 29 23 22 22 28 28 38 36 36 41 45 52 51 51 52 53 54 55 57 59 63 66 67 67 67 68 67 67 71 71 72 72 72 71 72 70 70 71 70 68 67
33 28 27 27 24 24 22 20 22 24 27 35 33 48 56 55 54 52 55 57 58 57 57 64 66 66 65 65 67 67 68 70 71 72 71 71 71 69 70 69 69 70 70 69
32 32 28 25 26 26 20 20 20 19 18 22 29 45 52 54 53 53 59 58 59 58 63 65 66 66 66 65 66 69 70 70 71 71 71 70 68 69 71 70 69 69 71 71
41 28 29 26 27 28 30 22 19 25 16 19 21 47 51 49 47 60 63 64 65 60 63 64 65 65 66 67 69 70 69 69 69 69 69 67 69 69 70 70 71 70 70 70
31 28 29 30 33 28 28 28 22 17 22 23 43 47 53 57 58 61 62 63 64 65 66 65 65 67 67 69 69 69 68 68 69 68 68 68 68 68 69 68 68 68 69 70
33 32 40 36 41 39 36 30 31 26 17 42 52 52 57 58 58 59 59 60 62 63 64 65 65 66 66 67 68 68 69 69 69 69 68 70 70 69 69 69 68 68 68 68
37 40 39 36 40 39 35 38 36 42 43 36 43 51 53 53 53 56 59 59 61 62 62 63 63 62 63 64 64 65 68 69 69 69 69 69 69 69 69 70 69 68 67 68
37 42 40 39 40 33 42 42 41 44 46 47 48 49 49 50 49 50 60 61 61 61 62 61 61 60 61 61 62 62 66 68 68 69 69 69 69 68 67 67 67 66 67 67
37 41 39 39 37 40 42 45 41 40 44 49 52 55 55 57 62 60 60 61 60 61 60 59 59 58 58 59 60 61 60 61 61 62 63 66 66 65 65 64 66 66 67 66
44 46 42 40 37 36 44 43 46 42 43 48 53 56 58 58 55 58 59 60 59 59 58 58 57 56 56 56 58 58 57 57 56 56 60 61 61 62 61 61 62 62 64 66
39 39 38 40 41 42 46 45 46 40 43 50 53 53 56 52 58 59 59 59 58 58 56 56 55 54 53 54 55 55 55 55 56 56 57 57 57 59 59 59 59 60 62 64
40 41 40 39 37 37 44 42 36 45 46 49 58 58 59 59 59 58 58 58 57 56 55 54 53 52 53 52 53 53 52 54 54 54 55 56 57 56 56 56 57 58 58 60
37 40 43 43 42 45 46 47 49 48 44 45 46 55 56 57 57 57 57 57 57 56 55 54 53 52 52 52 52 50 51 51 51 51 51 51 51 53 54 53 54 52 55 54
40 42 44 44 44 46 46 44 45 45 41 42 44 46 50 52 56 56 56 55 55 55 55 54 53 52 52 52 51 50 51 52 51 51 50 50 49 50 51 47 51 47 46 48
41 39 35 44 46 42 42 44 43 41 41 40 43 48 49 51 54 55 55 55 55 55 54 54 54 53 53 53 51 51 52 52 51 52 51 50 50 50 42 39 42 38 36 38
38 39 36 41 47 46 44 46 46 42 42 42 44 47 48 51 55 56 55 55 55 55 56 56 55 55 54 54 51 52 53 53 51 50 50 50 50 48 45 40 37 40 40 40
Lifted_Index
6 6 5 3 -0 -1 -1 -1 -1 0 1 -0 -1 -2 -1 -1 -0 0 1 1 1 2 2 1 0 0 0 -0 -1 -2 -2 -2 -2 -2 -3 -3 -2 -3 -3 -3 -4 -4 -4 -4
5 5 4 2 -1 -2 -2 -1 -1 1 1 1 -1 -1 -1 -1 -1 -0 0 1 2 2 2 1 0 -0 0 -0 -1 -2 -3 -3 -3 -3 -3 -3 -2 -3 -3 -3 -4 -4 -4 -4
5 4 3 1 -2 -2 -2 -1 -1 0 1 1 1 -1 -1 -1 -1 -0 0 1 1 2 2 1 0 -0 -0 -1 -2 -2 -3 -3 -3 -3 -3 -3 -2 -3 -3 -3 -3 -4 -4 -4
4 4 3 1 -1 -2 -2 -1 -1 0 1 1 1 -0 -1 -0 -0 -0 0 1 1 1 1 1 0 -1 -1 -1 -2 -2 -3 -3 -3 -3 -3 -3 -2 -3 -3 -3 -3 -3 -4 -4
4 3 3 2 -1 -2 -2 -2 -1 -0 1 1 1 0 -0 -0 0 0 0 0 1 1 1 1 1 -0 -1 -2 -2 -2 -3 -3 -3 -3 -3 -3 -3 -3 -3 -3 -3 -3 -3 -4
3 3 2 1 -1 -3 -3 -2 -1 -0 0 1 1 0 0 -0 -0 0 0 0 0 0 0 0 1 -0 -1 -2 -3 -3 -3 -3 -3 -3 -3 -3 -3 -3 -3 -3 -3 -3 -3 -3
3 2 2 0 -1 -3 -3 -2 -1 -1 -0 -0 -0 0 -0 -1 -1 -0 0 0 0 -0 -0 -0 1 0 -1 -2 -3 -3 -3 -4 -4 -4 -3 -3 -3 -3 -3 -3 -3 -3 -3 -3
2 2 1 1 -1 -2 -2 -2 -1 -1 -1 -0 -0 -0 -1 -1 -2 -1 -0 0 0 0 -0 -0 0 0 -1 -2 -3 -3 -4 -4 -4 -4 -4 -3 -4 -4 -4 -4 -3 -3 -3 -3
1 1 1 0 0 0 -0 -1 -1 -1 -0 -0 -0 -1 -1 -2 -2 -1 -0 0 0 0 -0 -1 -1 -1 -1 -2 -3 -4 -4 -4 -4 -4 -4 -4 -4 -4 -4 -4 -4 -3 -3 -2
1 1 0 -0 0 1 1 0 -0 -1 -0 -0 -1 -1 -1 -2 -2 -1 -0 0 0 0 -0 -1 -1 -1 -1 -2 -3 -4 -5 -5 -5 -4 -4 -4 -4 -4 -4 -4 -3 -3 -3 -2
1 1 0 -0 -0 0 1 1 0 0 -0 -1 -1 -1 -1 -2 -2 -2 -1 -0 0 0 0 -1 -1 -1 -1 -1 -2 -3 -4 -4 -5 -4 -4 -4 -4 -4 -3 -3 -3 -3 -3 -2
0 0 0 -0 -0 0 1 1 1 1 0 -0 -1 -2 -2 -2 -2 -2 -2 -1 -1 -0 -0 -1 -1 -1 -1 -1 -2 -2 -2 -4 -4 -4 -4 -3 -3 -3 -3 -3 -2 -2 -3 -3
1 0 0 -0 -0 0 0 1 1 1 1 0 -1 -2 -3 -3 -3 -3 -3 -3 -2 -2 -1 -1 -2 -1 -1 -1 -2 -2 -3 -3 -4 -3 -3 -2 -2 -2 -2 -2 -2 -2 -2 -3
1 1 0 0 0 0 0 0 0 1 1 0 -1 -3 -3 -3 -3 -4 -4 -4 -4 -3 -2 -2 -2 -2 -2 -2 -3 -3 -3 -3 -3 -2 -2 -1 -1 -1 -1 -1 -1 -1 -2 -2
1 1 0 0 0 0 -0 -0 -0 0 0 -1 -3 -3 -3 -3 -3 -4 -4 -4 -4 -4 -3 -3 -3 -3 -2 -3 -3 -4 -4 -3 -3 -2 -1 -1 -0 -0 -0 -0 -0 -0 -1 -1
1 0 -1 -1 -0 -0 -0 -1 -1 -0 -1 -2 -4 -4 -4 -3 -3 -3 -3 -3 -3 -4 -4 -4 -4 -3 -3 -4 -4 -4 -4 -4 -3 -3 -2 -2 -1 -0 -0 -0 -0 -0 -0 -0
-0 -0 -1 -1 -1 -0 -0 -0 -1 -1 -2 -3 -4 -3 -3 -2 -1 -1 -2 -3 -4 -3 -3 -3 -4 -4 -4 -5 -5 -5 -5 -5 -4 -4 -3 -3 -2 -2 -1 -1 -1 -1 -0 -0
-1 -1 -0 -0 -1 -1 -0 -0 -1 -1 -2 -2 -2 -2 -2 -1 -0 -1 -3 -4 -4 -3 -3 -3 -3 -4 -4 -4 -5 -5 -5 -5 -5 -5 -4 -3 -3 -2 -2 -1 -1 -0 -1 -1
-1 -1 -1 -1 -1 -1 -0 0 0 -0 -1 -1 -2 -2 -2 -2 -2 -2 -3 -4 -3 -3 -3 -3 -3 -3 -3 -3 -4 -5 -5 -5 -5 -5 -4 -3 -3 -3 -2 -1 -1 -0 -1 -1
-1 -1 -1 -1 -1 -1 -0 1 1 0 0 -0 -1 -2 -2 -2 -2 -3 -3 -3 -3 -3 -2 -2 -2 -3 -3 -3 -3 -4 -4 -4 -4 -4 -4 -3 -3 -3 -2 -1 -1 -0 -0 -0
-1 -1 -1 -1 -1 -0 0 1 1 0 -0 -0 -1 -1 -2 -2 -2 -3 -3 -3 -3 -2 -1 -1 -2 -2 -2 -3 -3 -3 -3 -3 -3 -3 -3 -3 -3 -2 -2 -2 -1 -0 -0 0
-1 -1 -1 -1 -0 -0 -0 -0 -0 -0 -0 -1 -1 -2 -2 -2 -3 -4 -3 -3 -2 -1 -0 -0 -1 -1 -1 -2 -2 -2 -2 -2 -2 -2 -2 -2 -2 -2 -2 -2 -1 -1 -0 -0
-1 -1 -1 -0 0 -0 -1 -1 -1 -1 -1 -1 -1 -2 -3 -3 -4 -3 -3 -2 -1 -0 0 -0 -0 -1 -1 -1 -1 -1 -1 -0 -0 0 0 0 0 0 1 1 1 2 2 2
-1 -1 -1 -1 -0 -1 -1 -1 -1 -0 0 0 -0 -1 -2 -3 -3 -3 -2 -2 -1 -0 0 0 0 0 0 1 2 2 3 3 3 4 4 5 4 4 6 6 6 6 6 6
-0 -0 -0 -1 -1 -0 -0 -0 0 1 1 2 1 0 -1 -2 -3 -3 -2 -1 -1 -0 0 1 1 1 2 3 4 5 6 6 6 7 7 8 8 8 9 10 10 9 9 9
0 0 0 -0 -1 -0 0 0 1 2 2 2 2 1 -0 -1 -2 -2 -2 -1 -1 -0 0 0 1 2 3 5 6 6 7 7 7 7 8 8 8 9 10 10 10 10 10 9